Miscellaneous Local Product
Issued by NWS North Platte, NE

Home | Current Version | Previous Version | Graphics & Text | Print | Product List | Glossary On
Versions: 1 2 3 4 5 6 7 8 9 10 11 12 13 14 15 16 17 18 19 20 21 22 23 24 25 26 27 28 29 30 31 32 33 34 35 36 37 38 39 40 41 42 43 44 45 46 47 48 49 50
000
AXUS43 KLBF 241510
MISLBF


WESTERN AND NORTH CENTRAL NEBRASKA HOURLY WEATHER ROUNDUP
NATIONAL WEATHER SERVICE NORTH PLATTE NE
1000 AM CDT TUE MAY 24 2016

NOTE: "FAIR" INDICATES FEW OR NO CLOUDS BELOW 12,000 FEET WITH NO
SIGNIFICANT WEATHER AND/OR OBSTRUCTIONS TO VISIBILITY.

NOTE: STATIONS NOT REPORTING VARIABLES SUCH AS SKY/WEATHER OR
PRESSURE ARE PROVIDED BY RAWS AND APRS NETWORKS AND ARE NOT UNDER
NATIONAL WEATHER SERVICE QUALITY CONTROL.

...OBSERVATIONS IN AND NEAR THE EASTERN PANHANDLE OF NEBRASKA...

CITY           SKY/WX    TMP DP  RH WIND       PRES   REMARKS
PINE RIDGE     SUNNY     61  41  47 CALM      29.92S
CHADRON        SUNNY     61  40  45 NE6       29.93R
ALLIANCE       SUNNY     58  50  75 SE6       29.94R
SIDNEY         SUNNY     63  43  48 S8        29.96R
CRESCENT LAKE    N/A     66  50  56 E5          N/A
BIG SPRINGS      N/A     51  47  86 W5          N/A
$$

...OBSERVATIONS IN NORTHERN NEBRASKA AND FAR SOUTHERN SOUTH DAKOTA...

CITY           SKY/WX    TMP DP  RH WIND       PRES   REMARKS
WINNER         FAIR      66  43  43 SW7       29.88R
VALENTINE      SUNNY     63  44  50 CALM      29.91R
THEDFORD       CLOUDY    67  48  51 N5        29.93R
AINSWORTH      SUNNY     68  43  40 NW3       29.90S
O`NEILL        SUNNY     69  53  58 W3        29.88S
ORD            SUNNY     68  53  58 CALM      29.87R
BROKEN BOW     SUNNY     72  52  49 SE5       29.90R
BUTTE            N/A     68  52  56 SW3         N/A
CHAMBERS         N/A     75  53  45 NW3         N/A
EWING            N/A     70  57  62 CALM        N/A
$$

...OBSERVATIONS IN SOUTHWEST NEBRASKA AND FAR NORTHEAST COLORADO...

CITY           SKY/WX    TMP DP  RH WIND       PRES   REMARKS
WRAY           FAIR      63  50  63 E6        29.96R
HOLYOKE        FAIR      64  54  68 S3        29.95R
IMPERIAL       SUNNY     64  50  60 CALM      29.94R
OGALLALA       MOSUNNY   58  47  66 CALM      29.95R
NORTH PLATTE   CLOUDY    63  52  67 CALM      29.92R
MCCOOK         SUNNY     67  58  72 SE13      29.92R
LEXINGTON      MOSUNNY   68  61  78 S16       29.91R
PAXTON           N/A     54  50  87 SW3         N/A
STAPLETON        N/A     64  54  70 CALM        N/A
GOTHENBURG       N/A     65  49  55 CALM        N/A
CALLAWAY         N/A     67  48  51 CALM        N/A
$$

...OBSERVATIONS IN CENTRAL LINCOLN COUNTY AREA...

CITY           SKY/WX    TMP DP  RH WIND       PRES   REMARKS
N.P. AIRPORT   CLOUDY    63  52  67 CALM      29.92R
N.P. DOWNTOWN    N/A     64  51  63 CALM        N/A
N.P. SOUTHEAST   N/A     64  52  66 CALM        N/A
N.P. HILLCREST   N/A     62  50  66 SE3         N/A
$$

...SOME OBSERVATIONS FROM AROUND THE REGION...

CITY           SKY/WX    TMP DP  RH WIND       PRES   REMARKS
DENVER         MOSUNNY   60  45  57 SE18G24   29.98S
LARAMIE        SUNNY     50  38  63 S9        29.98S
CHEYENNE       CLOUDY    56  44  64 S13       29.98S
SCOTTSBLUFF    SUNNY     57  46  66 SE9       29.95R
RAPID CITY     SUNNY     62  39  42 VRB6      29.93R
BISMARCK       SUNNY     65  46  50 W5        29.89R
PIERRE         SUNNY     63  51  65 E6        29.85S
SIOUX FALLS    MOSUNNY   68  60  75 SW5       29.86R
OMAHA          CLOUDY    66  63  90 S6        29.91R
GRAND ISLAND   CLOUDY    70  60  70 SW6       29.88S
KANSAS CITY    LGT RAIN  65  63  93 W13G25    29.99R
WICHITA        TSTM      64  58  80 NE18      29.96S
OKLAHOMA CITY  MOSUNNY   79  70  74 SW18G29   29.89R
DALLAS         CLOUDY    76  71  85 SE10      29.96S FOG
AMARILLO       SUNNY     74  63  68 S21       29.92R
DODGE CITY     CLOUDY    64  63  96 E14       29.90S
HAYS           CLOUDY    64  52  63 SE20      29.92F
GOODLAND       PTSUNNY   60  55  83 E16G22    29.94R
$$




USA.gov is the U.S. government's official web portal to all federal, state and local government web resources and services.